Weather in Umantsevo

Russia / Republic of Kalmykia     47°44′01″N   44°16′19″E
temp.,
°C
wind,
m/s
gust,
m/s
humid.,
%
clouds,
%
prec.,
mm/h
press.,
hPa
HPBL,
m
18 january, tue
tue1800:00−1ssw91589100 0.0 1012522
03:00−1ssw101990100 0.1 1011824
06:00−2ssw81778100 0.0 1010459
09:00−1s91878100 0.0 1010579
12:000s91775100 0.0 1009561
15:00+1s81584100 0.0 1009575
18:00+1sse71485100 0.0 1009472
21:000s51288100 0.0 1011341
19 january, wed
wed1900:000ssw5896100 0.6 1013275
03:00−1sw3497100 0.6 1015122
06:00−3wsw2298100 0.1 101534
09:00−2wsw2396100 0.2 101877
12:00−1w4593100 0.0 1018318
15:00−2nw4588100 0.0 1019340
18:00−4nnw3691100 0.0 1020205
21:00−5n2390100 0.0 102171
20 january, thu
thu2000:00
03:00−9nw339456 0.0 102238
06:00−10nnw349199 0.0 102253
09:00
12:00−4nnw3480100 0.0 1023209
15:00−4nnw35845 0.0 1022204
18:00−9nnw33925 0.0 102427
21:00−11nnw229231 0.0 102420
21 january, fri
fri2100:00−12wnw22915 0.0 102419
03:00−11nnw019015 0.0 102510
06:00−11sse11895 0.0 102410
09:00−8s3484100 0.0 102563
12:00−3sse4677100 0.0 1024230
15:00−2sse5877100 0.0 1023274
18:00−5sse41080100 0.0 1023171
21:00−4sse61284100 0.0 1022253
22 january, sat
sat2200:00−5sse6138896 0.0 1021255
03:00−5sse5129038 0.0 1021233
06:00−6se5129315 0.0 1020237
09:00−4se6139397 0.0 1020352
12:00−2se71289100 0.0 1020452
15:00−1se71287100 0.0 1020536
18:00−2se71491100 0.0 1020481
21:00−2se61293100 0.0 1021379